Location: Bear Valley Community Church - Hurst
(32.8460°N, 97.1828°W)
Time: 06:58:51
(UTC+00:00)

Cosmos 1328 Rocket - Pass Details

Date: 10 July 2022
Orbit: 600 x 627 km, 82.5° (Epoch: 14 August)

Event Time Altitude Azimuth Distance (km) Brightness Sun altitude
Rises 06:59:17 0° 16° (NNE) 2,886 8.0 -34.6°
Reaches altitude 10° 07:02:30 10° 41° (NE) 1,970 6.7 -34.5°
Enters shadow 07:03:32 13° 54° (NE) 1,787 6.3 -34.5°
